Location: San Vito
(41.8833°N, 12.9833°E)
Time: 02:58:12
(UTC+00:00)

Cosmos 1980 Rocket - Pass Details

Date: 17 November 2019
Orbit: 828 x 851 km, 71.0° (Epoch: 12 December)

Event Time Altitude Azimuth Distance (km) Brightness Sun altitude
Exits shadow 05:01:48 13° 274° (W) 2,237 3.8 -10.9°
Maximum altitude 05:02:46 14° 263° (W) 2,200 3.8 -10.7°
Drops below altitude 10° 05:05:34 10° 233° (SW) 2,466 4.3 -10.2°
Sets 05:09:13 0° 209° (SSW) 3,391 5.2 -9.6°
